GFSGL_925_rhum_000.txt.gz
RH
48 48 48 46 44 44 44 53 55 60 61 63 64 67 71 75 84 72 64 72 79 70 72 74 81 83 87 81 72 57 47 43 60 45 41 38 35 37 42 44 53 47 43
56 53 49 44 43 44 52 53 51 56 60 59 57 59 62 63 64 70 72 75 76 79 73 67 66 63 61 53 50 50 43 41 42 47 41 38 35 33 33 33 36 40 39
57 54 49 46 46 47 47 46 50 50 51 46 40 37 36 36 37 39 42 49 53 50 49 52 50 48 48 45 45 45 46 48 50 48 45 39 37 34 33 33 34 35 37
58 52 49 48 44 44 42 42 42 41 37 34 32 34 36 38 40 48 53 54 56 53 53 52 53 50 48 50 54 54 55 55 55 55 52 46 40 38 35 32 33 32 32
62 55 52 47 45 43 45 41 40 34 32 31 33 35 37 40 49 50 53 59 60 60 58 54 52 50 48 48 51 56 54 55 57 60 59 55 50 44 45 47 50 49 46
41 46 48 48 45 48 49 43 38 32 31 32 37 38 41 48 52 58 66 70 71 69 66 61 57 55 51 50 50 55 53 50 58 60 59 60 58 56 59 62 63 63 74
36 38 48 75 69 73 54 46 38 33 32 36 38 41 46 51 59 69 76 74 71 65 65 64 64 62 63 63 72 72 70 78 77 73 73 76 71 66 65 66 66 66 68
30 35 60 68 68 56 51 53 41 33 35 37 42 44 49 59 64 62 74 78 72 70 72 71 71 72 76 72 73 80 82 73 72 79 79 87 86 78 72 75 81 84 80
30 45 52 65 51 55 53 56 41 34 35 43 48 59 66 67 68 80 93 86 82 77 78 84 85 78 76 76 80 87 89 84 77 70 74 84 89 86 82 91 88 87 92
58 61 57 51 50 54 58 48 33 36 41 50 62 70 70 64 76 91 98 94 90 86 91 85 79 85 97 100 98 98 98 96 91 90 86 82 76 74 74 87 98 90 79
57 66 75 76 54 47 45 32 36 38 40 56 63 58 62 68 77 92 98 95 98 98 94 91 91 97 96 97 94 96 94 94 92 90 88 84 84 83 80 76 76 95 95
65 66 66 57 51 42 34 39 37 38 51 60 61 61 61 64 74 75 97 88 90 98 97 97 94 95 97 96 96 96 96 94 89 93 98 98 96 94 91 85 78 78 90
59 56 54 45 42 42 43 39 40 46 56 62 63 63 65 71 70 87 85 85 94 95 95 97 97 97 98 94 95 94 96 93 97 96 92 94 92 87 83 83 83 85 85
55 57 52 46 49 48 44 42 47 54 64 66 66 68 71 79 76 85 86 92 93 94 92 95 96 93 95 96 94 94 93 95 91 97 94 92 92 94 96 95 100 97 99
64 61 56 58 57 53 51 51 52 62 65 69 71 73 84 86 82 81 91 97 95 94 95 94 94 93 95 95 92 93 93 90 93 93 95 96 95 93 91 93 93 92 92
76 72 69 62 60 58 57 59 62 66 74 76 81 79 78 87 86 80 84 86 95 96 94 95 95 96 95 96 95 94 93 95 94 96 95 94 96 96 97 94 97 98 92
80 83 72 68 72 68 70 78 79 74 75 78 91 92 86 86 88 83 82 84 97 94 95 95 95 86 87 86 88 93 97 95 92 96 95 94 92 92 98 94 95 93 88
76 74 72 82 80 75 74 75 73 86 84 80 79 85 80 82 80 95 89 80 88 90 90 88 81 85 88 90 92 97 98 93 88 93 96 96 94 97 96 94 93 99 98
68 71 70 73 76 76 74 72 81 85 82 78 72 76 77 64 82 95 90 84 80 79 80 78 78 87 90 92 93 92 97 97 93 89 96 97 97 96 94 93 91 91 93
61 69 70 73 76 73 90 81 77 89 80 80 74 87 79 59 85 87 83 87 79 80 84 86 87 88 90 88 90 90 97 94 95 95 93 99 98 97 97 92 93 94 94
64 78 85 71 72 94 80 77 94 89 88 84 81 90 82 67 89 89 87 90 85 82 85 86 91 86 89 86 92 88 95 95 90 94 90 96 98 95 95 92 92 93 90
76 73 85 94 91 84 93 78 76 88 90 91 89 86 85 87 94 82 88 91 81 87 88 87 88 91 93 87 96 93 94 92 87 93 87 94 97 83 92 89 86 80 89
78 81 75 84 89 96 84 80 89 88 92 91 83 89 87 86 85 88 85 82 84 84 91 85 88 92 90 84 94 93 99 90 85 93 91 94 98 83 85 84 85 87 74
78 86 78 85 90 93 90 87 92 78 84 91 86 88 88 89 84 80 82 86 91 84 92 94 81 94 93 86 89 62 65 54 54 56 85 98 94 85 83 86 73 89 74
78 84 83 85 89 88 91 85 88 83 88 90 93 88 88 85 90 85 84 84 90 82 88 91 84 90 88 80 97 79 48 37 34 35 78 96 85 86 75 89 76 80 74
82 76 79 86 89 88 89 95 92 81 85 88 90 90 89 93 87 83 86 84 85 90 79 89 86 90 83 93 93 66 37 34 31 41 92 92 86 89 76 84 82 80 78

GFSGL_925_rhum_003.txt.gz
RH
52 50 50 48 46 46 51 54 53 49 45 52 57 52 47 44 43 44 46 50 56 68 71 72 64 64 69 76 74 71 87 93 81 57 45 40 37 35 34 34 44 63 85
50 54 56 50 45 44 48 50 47 46 47 51 44 39 36 36 35 41 48 58 60 56 52 47 45 46 48 51 60 60 52 52 57 61 52 45 42 38 35 33 35 48 60
47 56 57 55 53 49 47 44 44 43 41 35 32 31 33 35 39 42 49 51 50 51 52 54 52 47 43 49 50 53 52 54 53 53 55 48 46 41 38 35 37 32 42
37 56 56 61 66 47 50 55 46 42 34 31 28 28 30 36 41 44 46 51 56 61 62 59 54 56 53 58 63 55 54 56 55 53 57 54 50 42 43 57 54 51 49
30 40 49 50 61 67 72 59 69 48 32 28 27 30 36 42 46 51 55 67 68 62 57 55 57 66 67 64 65 63 58 59 59 55 58 58 57 53 56 63 65 59 51
31 33 34 62 74 77 75 79 57 34 29 28 31 34 43 47 50 57 65 64 62 65 61 54 64 74 70 72 87 82 80 76 68 60 59 63 61 61 61 65 65 66 78
34 42 60 69 78 82 93 71 47 40 32 30 34 44 45 51 59 67 70 69 80 73 67 62 67 73 76 78 78 73 68 76 75 76 85 82 78 71 69 71 70 72 73
42 56 60 60 71 88 82 60 47 42 33 35 44 46 57 64 64 73 82 91 87 80 79 76 86 92 90 88 80 83 82 80 71 65 72 74 72 71 79 81 86 95 91
59 59 62 61 62 67 78 56 50 35 35 41 51 57 55 57 73 86 91 95 92 89 86 87 84 84 86 95 99 100 99 91 83 88 87 92 95 96 95 99 98 97 90
61 64 64 67 68 64 72 56 47 34 38 57 58 56 64 73 83 87 99 98 90 93 94 92 91 96 97 96 96 93 93 79 81 79 81 81 77 76 70 75 86 98 94
58 59 65 63 65 61 57 42 35 38 53 55 55 56 58 70 75 99 96 93 93 99 97 96 96 95 95 98 96 97 96 94 95 93 86 82 78 77 78 76 75 81 94
55 57 57 54 46 49 42 38 39 49 51 56 57 58 58 59 67 90 88 83 86 97 98 96 95 97 96 96 97 96 96 95 94 95 96 94 96 95 93 96 96 95 95
59 60 59 50 48 46 47 45 46 49 56 61 62 63 64 68 67 70 80 91 94 94 96 98 99 97 97 95 96 96 94 95 97 97 97 96 96 92 88 85 83 85 87
64 64 60 61 57 55 50 50 52 58 61 64 67 68 69 70 76 82 85 87 92 93 86 96 93 95 94 96 93 95 95 94 96 96 95 95 96 97 97 98 99 96 99
65 66 67 66 62 60 58 57 67 66 70 74 74 78 74 76 85 83 80 84 92 96 91 92 92 88 95 96 94 94 95 94 95 96 96 97 96 96 95 97 97 99 100
66 70 70 71 66 69 71 73 71 67 68 73 78 86 85 78 86 88 79 77 90 93 86 98 94 88 92 96 97 98 96 96 95 96 97 98 97 96 97 96 93 97 95
69 73 70 72 77 77 69 71 69 66 65 74 81 94 92 77 86 91 86 79 77 80 79 81 83 90 91 95 96 100 100 97 93 95 96 96 97 96 99 96 90 96 96
75 71 71 66 64 68 67 72 69 72 79 71 76 89 88 82 81 78 94 80 66 75 79 82 85 90 92 95 94 98 97 96 94 93 95 96 97 98 98 97 95 98 97
70 69 72 66 68 69 73 78 73 77 72 71 74 88 85 82 60 78 83 84 76 74 80 84 89 90 87 88 91 86 95 97 91 89 91 96 97 98 96 97 95 95 92
71 71 69 71 67 67 76 82 74 76 77 72 72 90 93 74 61 73 84 88 79 77 77 77 84 94 92 81 90 90 92 86 83 85 87 94 97 98 97 98 93 98 83
75 73 72 77 67 72 83 81 83 69 72 72 78 89 87 82 77 87 86 84 82 77 81 84 77 88 89 81 92 93 95 88 71 81 88 92 95 95 94 95 90 78 86
72 74 70 70 69 66 79 86 70 73 83 85 88 80 82 86 92 94 83 77 75 77 82 86 80 81 86 78 86 92 92 83 58 68 84 94 94 93 88 87 85 85 75
79 75 78 70 71 73 89 92 70 72 78 76 79 79 86 89 92 88 83 79 80 84 81 85 89 76 87 80 76 82 64 61 59 61 80 98 95 90 83 86 78 87 75
78 76 80 71 69 78 88 86 76 77 74 74 80 89 92 95 91 87 85 86 85 85 86 86 90 79 83 78 84 92 77 43 42 42 86 96 90 86 77 87 79 78 77
84 75 71 70 73 79 83 85 80 69 75 78 82 80 85 90 89 80 76 85 85 85 81 82 86 88 79 79 90 91 69 34 34 38 86 86 84 84 72 82 79 77 76
92 82 84 71 75 79 77 81 87 92 76 78 76 83 83 81 90 96 88 91 90 87 86 85 86 91 82 77 90 88 44 34 30 41 86 89 88 82 83 74 77 72 73

GFSGL_925_rhum_006.txt.gz
RH
40 45 49 53 54 50 56 56 54 52 54 43 45 45 37 34 36 36 39 42 53 59 54 51 48 47 48 46 42 48 76 96 98 85 67 55 45 41 38 35 47 55 73
28 42 55 58 56 50 57 57 64 54 48 43 39 36 32 33 35 37 39 47 54 50 50 53 55 55 54 51 48 50 63 57 72 86 61 50 46 44 41 42 45 51 62
25 27 31 33 42 64 63 58 50 47 66 73 37 30 29 30 32 41 49 51 51 58 62 59 52 48 46 50 58 65 67 54 61 60 60 52 50 46 40 41 40 46 55
26 28 36 46 55 74 56 62 66 94 73 66 32 28 28 36 40 48 50 54 64 61 56 56 54 51 63 72 78 84 81 73 68 62 64 59 54 46 43 52 53 49 52
30 34 49 56 59 63 67 74 75 62 64 51 29 30 36 41 46 54 60 66 66 62 72 65 59 62 69 73 93 97 96 96 84 69 67 64 58 56 56 64 62 60 52
34 45 49 54 63 72 78 79 75 79 46 43 36 34 42 48 54 59 65 67 68 81 76 72 70 70 75 85 90 88 89 95 95 97 90 73 68 62 61 62 68 71 71
40 53 52 56 64 66 80 86 87 68 72 45 37 45 47 59 60 65 75 81 90 86 85 83 84 80 85 89 78 89 80 80 81 79 86 82 81 75 72 71 71 77 79
45 50 56 61 60 69 77 75 87 75 58 40 47 58 58 64 72 91 94 100 100 96 87 79 85 92 90 90 91 97 96 92 90 90 83 80 79 79 81 80 81 85 94
46 55 59 61 66 68 71 68 67 72 41 48 60 60 65 68 85 95 100 100 88 78 76 91 93 95 97 96 96 92 90 80 78 89 97 99 96 99 97 99 100 99 92
51 55 55 59 61 60 60 70 64 43 47 60 62 57 61 66 74 92 86 90 86 94 94 92 94 94 96 97 97 97 99 92 88 85 82 80 76 79 76 85 93 98 97
54 55 58 58 57 50 50 44 44 49 59 58 57 59 59 61 68 86 85 87 92 97 96 98 94 100 97 90 93 95 96 97 97 97 96 88 84 79 76 72 72 77 94
54 56 62 58 53 54 50 49 48 54 56 60 61 61 65 64 62 77 84 86 88 96 100 98 98 94 98 99 96 98 99 95 95 97 97 94 94 92 91 93 95 97 94
56 58 61 60 62 57 56 50 55 57 61 64 65 67 70 68 67 73 82 90 89 98 99 98 94 97 100 96 98 95 95 93 94 94 96 96 96 96 95 91 84 85 89
60 61 62 65 66 63 64 57 61 64 68 72 72 77 74 73 69 80 82 82 96 92 86 87 83 80 86 93 93 95 96 96 97 97 96 96 96 96 97 98 97 97 100
64 64 63 67 70 69 63 71 71 68 71 76 78 82 80 76 72 91 85 75 85 80 79 78 90 86 91 91 87 91 95 96 96 96 96 96 96 96 96 97 97 98 99
78 76 71 67 72 75 72 72 71 68 70 75 80 86 87 77 78 96 87 83 76 85 76 85 91 90 93 99 95 91 90 97 96 96 96 96 96 97 97 96 96 96 97
99 99 91 72 76 71 74 70 73 71 70 75 79 87 93 76 84 92 90 85 75 73 77 87 95 94 89 98 97 98 100 98 95 95 96 96 96 97 97 97 94 95 94
99 98 94 77 66 67 73 73 79 80 76 75 74 80 90 79 84 84 84 78 74 72 76 86 97 95 85 95 95 95 95 86 85 93 95 96 96 97 97 99 99 98 95
96 90 75 77 68 66 67 74 85 76 78 82 76 84 89 89 68 75 72 81 80 76 76 78 85 95 93 82 91 88 89 69 78 84 94 96 95 96 96 99 97 87 81
78 73 73 73 81 71 70 85 82 82 76 78 76 80 88 94 77 69 80 86 86 76 80 82 79 86 88 80 85 88 85 69 64 83 93 95 95 96 97 99 94 93 85
80 77 78 81 79 74 71 78 84 77 71 74 86 87 84 90 87 86 86 88 86 76 79 82 86 77 84 83 74 73 66 60 53 62 88 95 94 93 95 87 92 78 79
90 85 75 73 72 69 71 76 95 76 76 80 80 93 82 85 88 93 95 88 83 80 83 82 87 83 79 86 74 82 73 48 42 46 77 95 91 87 91 79 89 76 71
92 89 83 75 77 74 71 77 88 82 73 81 73 76 85 90 93 94 90 85 85 84 91 87 87 90 80 82 76 86 92 60 50 50 76 94 90 87 86 83 85 81 73
90 82 79 75 79 70 72 80 76 78 81 73 76 84 89 90 87 84 80 79 86 88 90 89 85 88 87 79 72 85 90 52 39 41 89 91 86 86 75 82 79 78 76
97 88 89 79 73 70 75 80 82 74 76 75 78 79 86 93 96 92 97 90 86 90 90 89 89 88 90 82 70 84 82 43 35 36 77 88 85 84 79 78 76 70 73
99 99 95 96 87 84 77 73 76 75 79 93 77 81 85 84 82 84 85 86 87 90 92 91 93 88 92 82 81 89 87 48 40 36 64 77 86 76 70 85 72 75 75

GFSGL_925_rhum_009.txt.gz
RH
25 25 25 27 26 33 54 58 58 58 58 62 63 61 59 40 33 34 34 34 38 51 58 56 54 57 56 52 48 46 48 57 85 75 67 69 71 57 52 42 46 60 71
26 25 27 31 32 36 56 69 64 66 63 60 67 70 51 33 30 32 35 43 53 58 55 61 56 52 49 47 45 57 69 71 78 79 73 61 52 50 47 44 40 40 58
24 25 27 30 34 38 45 64 65 57 49 55 61 75 46 30 32 36 44 52 56 58 63 59 59 58 55 51 60 75 84 89 84 79 70 64 67 56 51 46 42 36 39
25 26 30 35 42 47 54 57 55 58 71 77 69 62 37 33 38 43 51 54 59 65 62 68 70 65 61 70 71 89 96 97 97 92 81 68 61 53 49 48 44 41 36
28 31 35 41 48 56 57 62 76 78 80 78 54 44 44 41 44 53 57 62 68 67 72 81 77 76 79 73 76 85 88 97 97 96 96 81 66 58 54 58 58 56 48
32 35 40 45 51 56 65 74 89 90 85 68 64 51 46 46 54 59 62 71 79 87 93 90 86 81 79 79 84 87 88 96 98 98 91 96 96 90 67 66 70 69 75
36 41 46 55 59 60 64 75 78 72 78 66 63 49 53 60 58 66 86 98 99 100 100 92 82 85 88 94 92 92 89 94 95 94 98 95 86 71 75 77 75 72 72
40 48 53 54 53 59 69 73 76 76 77 79 55 62 60 61 62 81 97 98 93 85 76 80 94 96 95 94 97 95 96 81 81 90 96 94 91 87 85 85 83 82 84
40 47 53 56 61 69 65 63 71 74 71 56 67 62 55 57 67 83 88 89 88 80 84 88 94 93 93 97 97 97 97 89 85 88 89 93 98 96 98 97 98 93 89
43 51 54 59 65 61 55 55 51 45 51 65 59 56 55 56 71 86 85 85 87 92 87 85 96 95 96 92 95 97 100 89 93 90 85 87 86 79 80 97 94 98 97
47 53 57 59 59 56 56 53 52 52 60 61 56 59 61 63 65 80 84 85 88 98 95 95 97 99 95 96 98 95 97 97 96 93 100 94 91 93 85 72 70 75 90
55 58 59 60 61 60 59 51 50 61 59 59 62 64 68 67 68 69 85 87 88 98 96 94 96 90 95 98 96 99 99 95 94 95 94 94 96 93 92 94 94 95 85
68 66 65 64 65 64 62 55 58 60 61 64 67 69 72 73 67 74 84 86 87 82 92 96 93 90 92 86 98 100 93 94 96 95 96 95 96 96 97 97 92 94 91
68 72 72 72 68 68 65 61 62 65 68 72 73 77 78 78 69 80 95 80 78 82 78 75 77 73 76 80 79 89 94 95 97 97 97 96 96 96 96 97 97 97 98
73 81 79 93 77 72 64 70 75 72 69 74 79 81 85 84 72 90 92 84 77 83 73 75 81 81 83 90 81 84 88 90 97 96 96 96 96 96 96 97 97 97 97
99 99 98 99 85 79 76 74 72 71 73 78 84 84 89 88 74 92 93 88 81 73 73 88 91 88 87 100 93 90 88 88 94 96 95 96 96 96 97 96 97 97 97
95 92 100 99 96 82 76 75 74 66 76 75 76 81 88 92 76 93 79 88 75 72 74 85 92 92 84 96 94 94 92 76 83 96 96 96 96 96 96 96 96 96 96
86 92 100 99 96 81 80 72 76 87 80 78 78 79 87 92 82 84 83 82 79 74 76 80 89 92 90 87 95 95 87 62 74 92 95 95 96 97 96 96 97 90 87
94 94 88 78 82 82 78 71 77 88 78 84 84 79 83 89 93 77 78 80 84 79 80 83 81 85 87 77 85 83 84 61 70 90 94 95 95 95 96 97 95 95 82
99 92 86 81 78 94 88 82 88 88 86 74 74 76 81 89 88 86 78 86 87 84 80 82 86 81 82 81 64 62 54 46 48 72 92 93 92 94 97 95 94 83 82
97 95 89 83 84 78 78 75 87 90 86 69 76 86 90 88 83 90 93 92 91 86 81 84 87 87 80 84 71 67 64 51 46 46 86 92 90 84 93 84 94 76 71
100 98 94 85 75 77 70 69 74 81 96 76 76 79 89 87 86 91 95 92 90 87 86 91 90 90 85 80 76 76 81 56 43 41 65 89 86 80 89 82 86 78 71
94 98 98 97 87 80 83 76 72 80 94 83 79 76 80 91 94 95 90 81 81 86 90 94 92 90 90 83 75 75 84 65 41 43 66 88 81 81 78 82 82 81 75
100 100 99 96 86 79 80 70 72 78 84 85 85 76 80 84 84 86 88 89 86 85 91 93 93 88 93 89 80 72 83 61 40 38 68 92 86 83 78 78 74 74 72
100 100 99 97 91 87 78 75 75 73 75 83 82 79 83 82 88 90 83 89 86 80 86 92 93 91 91 92 84 77 86 78 45 39 56 79 85 82 77 79 71 72 72
100 100 99 98 94 92 96 96 92 88 73 71 78 85 90 86 87 84 83 84 84 88 89 92 94 93 90 93 85 90 93 82 60 54 53 54 71 77 64 84 81 77 81

GFSGL_925_rhum_015.txt.gz
RH
24 23 24 24 25 26 28 32 40 41 55 79 83 82 82 73 68 89 70 47 55 59 66 75 70 68 63 65 64 60 56 54 55 50 47 49 59 62 58 51 60 65 74
24 25 27 27 29 32 37 42 45 54 60 70 78 78 83 91 91 70 46 37 58 61 66 67 64 67 68 64 66 63 61 60 60 54 53 63 63 67 66 63 64 56 64
27 27 29 32 34 40 47 48 49 62 76 80 80 84 92 91 79 48 42 46 65 66 65 71 73 72 71 70 68 66 67 67 63 73 61 55 59 62 67 70 91 65 65
28 28 32 36 39 45 47 52 63 67 82 85 74 91 70 55 53 49 47 56 66 70 77 79 82 82 76 71 75 85 76 82 75 72 68 61 58 54 72 66 68 58 57
28 31 34 38 43 47 48 53 64 65 82 88 82 82 72 67 55 58 58 67 74 77 79 76 77 83 87 82 76 75 80 81 79 72 64 58 62 54 70 90 78 58 55
30 34 36 40 45 49 52 58 71 78 78 80 82 81 84 64 62 59 64 79 80 72 67 67 68 70 71 83 86 87 87 81 82 79 85 62 53 56 61 89 91 86 59
33 35 39 41 43 51 55 67 69 75 77 87 94 88 72 80 63 54 52 72 68 68 70 69 70 70 81 78 77 80 95 94 92 90 88 69 62 60 69 73 76 75 68
36 40 42 44 48 55 60 67 69 67 78 88 85 70 76 69 56 55 55 74 69 70 71 75 75 77 77 85 91 83 76 71 75 84 90 86 77 74 72 81 79 75 67
41 44 48 50 59 69 69 67 66 66 65 62 62 72 78 72 56 58 63 78 79 78 80 80 82 79 85 92 85 85 74 67 83 82 88 94 96 94 89 84 91 88 74
56 59 60 63 71 74 74 68 66 72 65 63 77 74 60 58 59 60 68 85 85 81 78 76 87 92 93 85 78 84 80 83 78 79 78 77 83 81 94 88 73 83 83
55 54 68 73 73 75 76 69 68 68 64 73 72 64 62 61 63 62 70 89 85 80 73 69 80 94 83 82 85 85 91 94 91 88 81 74 73 78 82 85 82 73 69
65 76 80 76 77 79 78 75 68 69 79 76 66 67 66 66 68 68 69 88 89 86 83 76 86 87 85 88 86 93 96 98 95 91 88 84 84 85 85 90 93 89 79
79 85 89 91 85 83 84 74 73 73 76 74 74 82 78 77 78 73 70 82 93 85 90 78 86 88 84 78 89 95 86 92 94 91 89 88 94 98 99 98 99 98 95
89 93 96 93 96 90 87 74 71 75 74 76 79 79 79 84 89 86 76 95 90 85 86 76 72 78 72 78 81 84 91 90 100 97 94 96 99 98 98 99 98 98 96
93 80 78 82 88 95 99 79 72 71 77 76 75 82 89 92 92 83 78 93 92 89 75 85 77 80 75 68 75 79 79 78 88 100 98 95 95 95 96 99 98 99 95
95 89 85 94 90 97 99 88 78 79 75 72 74 78 79 82 88 86 77 96 88 79 80 81 83 86 82 72 73 76 76 74 83 100 99 97 96 95 93 91 96 96 94
96 97 97 100 98 100 100 100 90 84 82 77 77 76 79 80 85 90 82 97 91 83 84 81 89 91 85 76 71 72 73 78 86 100 100 100 100 97 92 89 88 87 86
81 89 98 100 100 100 100 100 100 99 92 83 80 79 78 82 86 92 97 95 95 91 90 84 86 89 88 78 74 74 74 78 79 93 100 100 100 99 92 90 88 88 80
93 100 100 100 99 99 96 88 100 100 97 94 94 90 80 82 91 100 100 99 93 87 90 88 89 92 91 90 91 92 93 84 78 85 98 100 100 98 94 94 94 93 83
95 94 100 100 100 100 100 96 96 99 97 92 94 98 92 77 84 97 100 100 100 95 96 96 91 92 96 97 98 97 92 90 81 77 86 100 100 99 96 97 96 91 82
77 78 86 100 99 100 100 100 96 97 90 88 88 83 86 83 94 98 100 95 87 96 98 100 99 91 88 86 93 97 92 93 93 84 82 92 100 95 92 98 95 92 85
78 85 98 100 100 100 100 100 100 100 94 93 90 87 77 91 86 98 97 88 84 86 88 93 96 96 91 97 99 100 96 94 96 88 84 83 97 93 92 90 90 90 86
98 97 100 99 100 100 100 100 100 100 100 97 94 94 96 93 86 91 85 77 79 91 88 83 82 86 88 91 88 87 91 94 98 66 53 84 95 92 92 89 85 80 80
96 100 100 100 100 100 100 100 100 98 95 96 98 95 92 89 88 84 80 76 77 78 80 80 80 83 87 92 89 90 87 77 80 78 52 56 97 95 92 86 89 89 84
100 100 100 100 98 99 100 100 100 100 100 98 99 98 96 98 95 83 82 83 78 80 81 83 84 80 84 89 88 92 90 82 84 83 65 64 75 70 90 85 94 89 88
93 97 98 97 96 98 100 100 99 99 99 98 98 98 99 99 98 98 93 89 83 83 84 82 83 81 85 89 89 92 91 84 87 84 72 68 70 92 92 89 91 93 91

GFSGL_925_rhum_021.txt.gz
RH
41 37 34 34 36 37 38 39 37 39 40 40 42 45 47 45 45 50 55 64 65 66 62 47 53 54 54 50 44 40 40 40 45 42 38 40 45 50 50 49 49 50 48
37 35 34 35 32 34 37 38 38 40 42 41 43 46 44 43 46 54 61 69 67 55 48 52 54 52 51 47 40 39 40 39 40 43 46 53 54 53 49 50 51 49 48
38 33 30 32 33 35 38 38 40 40 42 43 44 45 46 55 63 54 47 49 50 54 59 52 54 57 55 43 46 47 45 43 46 59 64 59 56 51 51 50 46 53 49
36 26 25 29 34 37 39 39 42 42 46 44 45 44 46 48 53 58 59 58 58 56 64 62 57 52 46 56 54 53 51 56 57 60 58 54 52 52 56 61 55 52 49
30 27 27 30 36 39 39 40 41 45 46 44 44 45 45 59 65 66 62 61 58 61 56 53 44 46 49 56 62 62 63 62 61 60 60 66 60 63 70 57 61 56 56
31 31 31 32 36 38 37 41 41 42 43 45 46 46 48 65 69 65 60 56 54 58 51 44 44 44 46 54 64 77 77 68 72 84 73 52 50 59 63 76 77 57 49
32 31 31 34 36 34 35 34 36 40 45 46 47 52 58 66 68 57 54 58 55 52 48 46 47 44 51 56 61 63 69 68 72 72 77 68 76 72 72 80 77 78 65
32 34 35 34 28 31 33 34 37 43 46 47 47 52 56 67 68 57 54 63 58 55 53 53 52 52 57 78 73 66 57 50 47 48 53 62 69 64 62 62 64 61 60
36 32 30 29 34 34 34 36 41 45 48 48 46 49 52 68 71 65 56 64 62 62 60 57 56 53 63 72 75 69 60 53 49 50 58 71 76 78 80 82 71 59 71
30 31 32 33 33 34 38 44 46 52 49 47 46 48 53 65 74 70 60 70 68 66 62 57 56 61 72 82 80 75 71 62 58 61 68 74 68 69 69 80 69 75 70
35 35 36 36 38 43 47 48 53 52 54 57 59 64 64 71 72 73 70 74 74 72 67 61 60 73 76 79 83 77 82 78 73 80 84 77 73 75 78 80 86 91 88
46 45 44 43 50 52 54 55 54 53 56 60 65 74 70 73 72 77 75 69 76 81 79 71 77 73 71 82 77 62 58 84 76 76 82 78 81 82 80 84 83 74 82
53 51 49 52 55 59 60 61 58 57 60 60 65 79 70 68 81 88 78 75 73 86 83 80 79 87 75 69 59 61 70 64 64 74 87 83 83 88 86 94 92 96 79
55 53 56 60 57 60 59 61 68 65 63 66 66 67 63 55 55 78 92 95 90 94 90 86 78 75 69 62 70 62 65 65 62 62 85 87 87 83 84 86 97 97 98
65 68 65 69 67 63 60 65 72 72 76 69 71 75 76 80 68 78 85 91 93 93 83 82 75 73 70 67 62 64 67 68 59 60 73 86 87 82 78 86 90 95 98
77 74 71 68 64 64 62 68 72 73 75 72 68 67 71 80 78 76 74 77 77 75 84 74 71 85 78 72 64 62 64 68 69 66 65 68 78 86 83 85 84 86 86
83 76 72 70 68 65 68 74 71 69 80 88 77 75 76 72 78 86 82 82 86 98 91 74 77 82 83 69 61 58 59 63 77 72 68 70 72 71 79 86 82 84 81
72 71 72 68 78 83 79 88 83 76 90 87 88 97 86 77 75 78 79 93 98 98 85 73 71 76 75 67 62 63 69 76 75 73 79 81 79 73 70 65 77 85 79
73 70 76 83 84 82 84 91 94 90 87 87 84 86 94 82 84 82 82 97 86 84 80 83 82 73 74 72 74 83 88 89 86 85 81 83 91 80 70 66 67 68 66
63 66 70 77 81 82 83 85 82 98 90 84 92 88 79 80 99 98 97 91 94 86 85 80 74 71 73 80 87 90 87 91 90 84 77 80 85 87 80 71 70 66 60
68 75 82 89 89 88 92 86 84 86 87 85 86 95 90 78 84 91 90 91 91 90 84 84 85 88 90 94 91 90 87 83 87 90 82 83 81 84 86 76 69 67 62
84 94 91 92 92 89 94 97 87 88 89 88 88 92 98 91 88 86 86 86 86 90 89 86 85 89 92 92 87 94 91 93 88 88 89 88 81 82 86 86 76 70 67
94 92 90 89 89 87 92 91 93 97 96 95 95 94 99 99 95 94 91 88 88 91 90 87 86 88 90 96 91 88 93 91 90 92 88 88 84 84 88 86 81 72 70
87 83 87 83 89 91 94 97 98 95 94 96 90 93 98 98 99 98 96 96 95 95 97 97 94 92 90 92 96 91 94 94 98 92 99 95 86 86 89 86 83 80 73
95 92 93 94 95 96 97 99 98 91 88 89 94 96 96 95 96 95 97 99 98 99 99 98 98 97 96 96 99 89 96 93 98 97 97 99 93 92 91 87 85 82 89
100 99 98 97 95 92 94 95 96 98 98 96 94 94 95 98 98 95 88 87 90 93 98 99 99 97 97 96 96 97 95 100 87 85 84 94 91 93 94 88 84 81 80

GFSGL_925_rhum_024.txt.gz
RH
47 47 36 36 35 38 38 39 40 39 40 41 41 42 44 45 45 48 53 56 60 67 69 73 87 76 61 60 56 51 48 48 55 48 45 46 52 56 58 57 55 53 52
45 39 39 34 36 37 36 38 39 39 40 42 42 43 45 46 46 55 60 56 54 60 57 60 60 62 60 59 55 50 54 53 52 54 57 60 61 58 57 55 54 57 54
42 39 36 36 35 34 35 38 39 40 41 43 44 45 46 45 51 58 60 57 57 56 61 64 64 60 58 52 54 54 54 56 60 63 61 61 60 59 57 60 61 63 65
39 40 35 31 33 34 37 40 39 41 43 46 45 45 45 45 47 57 57 57 60 62 66 65 58 54 47 48 50 53 59 64 65 66 65 65 63 62 61 61 66 61 66
47 40 30 28 30 34 38 40 39 42 44 46 44 44 45 49 63 65 65 59 63 61 59 57 51 44 44 45 49 55 69 74 72 70 71 72 72 62 60 73 89 83 78
49 36 29 31 32 36 39 38 38 38 40 43 45 46 50 60 70 68 54 56 59 56 54 50 47 46 45 50 62 66 68 70 72 82 86 81 73 74 86 81 78 78 79
39 34 32 33 37 39 34 33 34 35 39 44 47 48 50 60 68 65 49 54 55 58 55 52 52 50 53 55 59 63 59 64 62 59 67 76 90 80 71 71 68 69 73
35 33 40 43 34 30 34 39 36 37 42 46 48 48 51 60 63 64 55 53 62 61 59 58 56 55 55 60 63 56 73 66 60 58 60 60 64 66 73 81 82 81 81
42 49 54 33 34 37 39 42 42 42 44 50 49 48 48 56 66 70 61 58 69 67 64 62 60 58 55 60 61 74 79 70 68 61 56 69 72 74 75 81 92 92 88
55 49 52 40 44 50 47 48 48 49 53 51 51 51 54 61 72 74 69 61 71 72 68 65 61 60 64 74 72 81 85 84 74 63 79 87 76 79 78 96 97 96 94
66 53 51 58 57 52 51 52 54 56 55 54 57 58 63 64 71 72 72 71 69 78 77 73 72 82 76 69 73 78 78 65 66 82 84 82 90 81 78 74 86 98 98
60 62 65 66 61 55 56 59 62 63 60 57 62 64 72 70 72 70 71 71 69 68 74 82 80 79 70 69 69 65 63 66 79 71 72 85 85 85 83 85 89 94 98
64 80 76 64 57 60 61 63 64 65 70 65 64 69 80 73 72 78 81 80 74 71 70 81 79 77 80 78 70 64 65 73 73 64 69 79 84 90 85 86 81 90 87
80 72 58 63 64 64 65 62 60 65 73 77 80 69 70 67 68 77 89 84 84 79 78 91 94 70 79 74 70 68 68 71 73 65 65 72 78 87 86 86 91 94 95
66 72 75 75 73 73 68 64 63 65 68 72 78 80 79 80 79 73 84 96 98 94 99 89 74 77 80 74 71 67 66 69 74 74 68 71 73 77 84 79 95 90 92
83 80 80 75 75 71 70 69 68 66 66 71 71 76 74 78 73 71 66 70 73 79 80 82 82 77 84 80 74 70 63 64 71 66 84 73 80 79 82 82 88 90 89
82 81 76 72 72 72 76 76 85 85 86 80 76 76 82 74 74 76 74 78 80 86 88 89 82 81 81 78 73 68 62 67 73 78 76 80 85 83 78 85 75 86 86
73 73 69 70 77 81 84 77 74 79 86 85 85 85 83 84 87 81 75 81 97 99 97 95 88 82 76 78 70 68 72 77 75 90 73 84 88 86 83 78 76 80 76
64 68 73 73 76 77 72 73 83 92 97 92 90 87 84 85 86 87 85 95 97 94 97 100 89 79 82 79 73 75 85 80 80 76 83 91 80 87 86 86 71 76 72
62 65 64 63 70 81 89 94 91 90 85 87 95 91 84 94 98 100 95 96 100 97 89 86 79 77 78 79 83 86 88 84 90 92 90 82 88 82 83 90 82 71 73
68 71 75 84 97 99 99 91 92 96 100 90 83 87 84 93 99 98 94 97 97 98 97 92 88 83 67 73 79 81 75 83 82 88 82 79 93 74 87 86 88 76 71
88 83 85 99 98 94 93 92 88 88 93 93 92 89 87 89 100 100 98 98 97 99 95 91 92 92 92 90 89 89 82 86 86 89 83 90 85 84 89 87 90 80 72
89 86 92 97 99 94 93 86 90 94 95 100 98 98 95 97 99 100 99 97 97 96 92 94 98 97 90 93 95 88 88 87 84 87 86 85 81 86 95 78 91 84 75
97 99 100 100 100 98 94 94 97 98 100 99 97 97 97 98 98 98 99 99 98 98 98 98 97 97 98 97 96 92 93 84 87 91 92 86 84 88 92 94 88 92 89
96 99 99 99 99 99 98 97 96 95 94 95 97 97 97 94 94 96 98 98 94 91 98 99 100 100 99 98 97 96 92 91 86 94 86 84 86 93 93 80 88 84 88
98 99 99 100 99 99 98 97 95 94 94 95 94 96 96 97 96 97 96 91 94 96 96 99 98 100 100 99 99 98 97 96 89 90 88 88 85 86 84 92 94 82 82

GFSGL_925_rhum_027.txt.gz
RH
37 39 47 37 37 37 38 39 40 39 40 40 42 42 42 44 46 51 51 55 58 57 59 64 74 80 82 71 65 55 54 54 64 61 59 62 59 58 54 57 56 56 59
45 47 40 37 39 38 39 39 40 39 40 41 42 43 44 46 46 49 52 60 55 57 60 62 64 64 62 61 57 53 53 50 60 71 66 65 64 62 61 56 55 63 56
46 45 38 37 39 37 38 38 40 40 41 42 44 45 45 45 46 50 57 59 58 60 63 66 66 61 58 53 50 47 47 49 57 65 71 68 65 62 64 64 60 62 72
45 43 40 39 37 36 36 39 41 40 42 44 45 46 45 45 49 60 60 60 60 65 65 61 58 53 45 45 45 47 53 59 66 70 75 73 73 72 74 69 83 84 76
42 41 40 39 34 39 37 41 41 40 40 41 42 46 45 50 53 61 65 63 54 58 57 56 50 47 47 46 50 58 64 68 69 75 79 80 83 84 83 96 86 77 69
41 42 44 37 35 40 42 44 37 36 36 39 45 45 48 50 52 60 66 50 47 52 57 55 52 50 50 57 63 67 71 70 75 80 85 83 78 87 89 75 76 77 74
48 46 40 39 42 40 37 40 34 33 42 45 45 48 48 51 53 62 64 48 52 55 60 58 57 56 56 56 56 55 55 36 72 68 68 68 67 65 71 76 81 89 89
48 43 42 44 46 56 51 40 41 57 55 47 46 50 50 53 55 62 61 55 55 63 64 62 62 60 58 57 56 59 51 36 56 73 75 63 71 81 82 84 86 89 89
55 49 48 49 56 52 52 49 62 59 54 52 52 52 53 57 58 66 65 59 58 66 68 68 64 62 60 60 63 71 50 43 60 74 69 70 73 85 87 94 97 98 92
64 63 70 73 68 51 60 66 58 58 56 57 56 53 52 52 57 65 71 69 64 65 70 71 68 66 66 77 76 73 57 59 70 69 69 64 72 81 79 77 86 98 95
80 87 83 74 72 78 63 60 61 61 61 62 64 62 58 59 62 66 70 70 69 68 71 73 71 79 83 78 70 67 62 70 72 76 72 62 74 78 73 76 83 94 98
84 82 73 79 76 70 64 60 60 60 64 67 69 70 64 68 70 70 72 72 71 68 64 64 69 86 75 68 73 68 69 70 69 79 70 67 71 76 78 80 77 77 84
69 76 73 66 68 64 62 62 62 63 66 65 66 81 74 71 74 75 75 74 74 79 71 66 71 72 75 70 74 74 76 72 72 79 71 64 68 74 76 72 70 80 80
72 70 69 67 66 66 66 70 68 67 66 65 66 74 78 92 86 76 82 88 91 84 78 73 75 84 71 78 78 70 71 68 72 76 73 67 70 77 69 74 86 91 91
74 73 71 72 72 74 76 73 69 67 67 67 65 65 70 78 88 98 90 95 88 86 88 84 96 98 68 76 83 68 67 69 70 75 68 81 79 84 74 72 91 88 94
74 72 76 78 73 72 73 74 74 71 73 77 81 81 82 76 79 87 94 94 91 98 100 100 97 81 77 73 88 71 68 69 69 70 77 78 80 85 83 78 80 89 92
75 71 67 73 77 73 73 80 80 72 69 65 63 70 77 85 88 95 96 96 97 87 91 87 85 83 75 72 87 75 71 68 72 74 80 77 79 89 82 87 79 82 89
67 66 69 70 73 70 80 74 66 70 74 76 72 71 79 83 84 84 92 98 98 99 97 93 90 86 77 76 82 77 73 72 76 70 70 69 88 87 85 85 88 80 78
75 70 68 67 65 67 79 87 81 90 88 91 91 85 76 74 82 82 90 99 97 97 92 93 90 86 82 75 76 82 75 74 75 68 72 85 94 87 83 79 94 82 73
88 88 86 82 80 86 84 96 100 99 100 100 98 96 90 88 93 90 94 100 99 98 96 93 90 83 83 80 85 97 86 81 78 74 85 94 87 88 80 81 94 95 73
95 93 90 91 93 100 100 100 100 98 99 94 96 92 89 92 95 99 100 100 98 98 96 94 92 89 86 82 81 85 86 81 73 75 85 86 80 81 74 91 97 94 74
99 98 98 98 99 100 99 100 99 99 97 88 89 94 92 98 98 99 99 99 98 98 97 97 92 92 88 82 82 82 83 82 80 72 76 84 81 86 75 93 89 91 82
84 93 94 94 97 95 96 96 98 99 90 95 97 100 100 94 98 98 99 98 99 99 98 98 99 100 96 96 93 89 93 92 83 73 77 83 80 83 77 94 82 92 85
99 100 99 99 98 98 98 95 98 98 98 97 96 96 97 97 98 98 98 98 98 99 99 98 98 97 97 97 98 97 95 93 92 86 82 82 87 79 79 90 95 92 92
95 100 99 100 99 97 98 98 97 96 97 97 96 95 98 97 97 96 94 94 96 95 96 97 98 99 99 99 100 98 97 97 97 95 86 86 89 86 82 95 87 86 83
91 100 98 100 100 100 99 98 97 97 97 96 96 97 98 95 93 93 96 98 93 84 78 74 74 83 94 98 97 99 99 100 98 97 94 87 87 76 86 87 78 91 82

GFSGL_925_rhum_030.txt.gz
RH
49 44 41 43 35 36 37 38 38 39 40 42 40 41 42 42 44 48 51 51 55 55 56 57 70 78 82 76 78 66 57 55 64 57 50 53 52 51 52 52 54 54 61
45 42 40 42 36 38 38 38 40 40 41 40 41 42 43 43 42 45 49 59 57 57 59 62 64 73 70 66 62 57 53 49 53 65 62 60 55 53 59 63 65 64 66
41 41 43 38 38 38 38 40 40 40 40 41 42 43 44 45 44 44 49 62 60 62 70 66 67 65 60 60 54 47 48 51 58 69 72 64 63 64 66 72 74 75 73
41 43 43 36 37 39 37 40 40 41 41 43 44 43 45 46 45 46 56 59 60 66 68 65 60 56 48 46 47 49 53 60 66 68 74 79 78 72 79 85 90 86 73
46 45 44 39 36 38 40 43 43 44 48 41 43 42 45 47 46 50 59 64 63 58 58 56 53 51 49 49 50 58 66 69 68 66 84 85 83 83 87 83 92 78 71
46 46 43 40 42 45 45 46 50 45 41 39 34 42 49 47 50 52 58 63 59 48 52 54 56 55 54 54 58 61 61 61 64 78 87 83 82 72 68 71 80 85 85
51 45 46 47 45 44 48 52 56 56 48 42 50 48 48 52 52 55 61 63 51 50 54 59 60 60 59 59 58 59 58 60 39 54 72 80 78 70 91 94 95 97 96
53 52 47 51 56 63 76 79 78 64 58 58 54 51 53 53 54 59 65 61 54 55 60 63 64 64 63 62 62 61 66 63 35 55 78 74 79 91 96 99 98 99 99
61 66 67 74 83 82 82 79 74 68 60 56 59 58 55 54 54 60 64 62 60 59 63 65 68 67 64 65 64 75 71 48 57 61 72 70 69 78 90 95 94 100 90
71 73 84 88 88 89 89 78 71 61 62 61 61 62 65 57 56 55 60 64 66 65 64 66 69 70 67 68 79 75 69 55 63 66 71 72 62 61 66 75 90 100 97
88 88 90 95 97 86 79 66 64 63 62 58 61 64 67 68 64 60 62 66 69 69 68 65 68 70 71 79 81 73 64 66 68 72 76 77 70 64 72 75 76 86 100
93 96 91 81 72 70 70 66 62 61 62 64 66 62 60 69 66 66 68 69 71 71 71 68 64 64 72 79 74 68 74 78 78 76 74 78 69 67 75 69 69 80 85
73 72 69 63 65 70 67 65 64 65 68 68 68 66 62 64 75 84 95 96 74 75 74 79 70 65 73 73 70 72 76 77 77 78 74 78 71 73 74 66 74 81 71
66 65 67 68 69 69 68 66 73 74 73 71 68 68 69 70 68 72 77 93 93 83 88 92 81 71 75 79 74 76 76 72 72 70 76 77 72 74 74 72 81 82 89
64 63 62 64 71 72 69 68 72 71 73 74 78 81 83 85 79 79 79 84 95 98 98 98 96 84 83 90 77 75 82 75 72 72 78 72 76 76 79 77 75 78 94
66 62 59 63 60 64 73 74 72 75 76 73 68 65 65 67 70 80 93 95 97 98 99 98 96 95 91 92 84 74 77 81 71 72 72 78 81 79 86 81 82 78 89
80 77 74 70 68 68 69 72 83 71 75 66 62 65 70 73 75 79 91 94 98 99 98 100 100 98 93 94 83 78 77 84 74 69 75 72 73 83 86 81 86 86 82
85 88 92 93 91 89 85 83 81 85 87 84 81 84 76 78 80 77 82 98 99 100 98 99 96 90 86 85 84 76 72 85 77 74 74 66 68 86 91 81 84 97 85
92 92 87 86 94 97 100 100 100 98 100 99 95 90 85 83 74 88 84 100 100 98 99 98 95 91 87 86 83 78 73 81 84 78 76 71 77 86 90 83 83 93 88
100 100 98 93 99 98 95 98 98 94 96 98 99 93 98 95 99 96 84 97 100 98 98 99 97 95 89 86 77 77 78 81 93 85 81 77 82 89 87 79 87 98 90
71 86 91 94 94 93 94 93 93 87 92 97 96 97 98 90 100 100 98 100 100 99 99 98 99 97 96 95 87 83 84 88 92 85 83 79 82 86 79 76 89 96 85
99 100 100 99 100 99 99 99 97 96 94 92 94 98 96 98 100 100 98 99 100 99 99 99 98 97 97 92 93 89 86 86 85 83 85 81 79 84 83 76 84 94 90
87 100 100 99 100 100 99 99 98 98 99 99 98 98 96 100 100 98 99 98 98 100 100 99 98 97 98 97 97 97 96 88 84 88 93 89 78 85 84 78 83 93 93
93 100 90 100 100 100 100 100 100 100 100 97 98 97 97 97 96 96 92 90 90 89 91 95 97 98 98 97 98 98 98 97 98 97 98 97 79 84 85 80 86 94 91
86 100 88 100 100 100 100 100 100 100 100 98 98 97 96 96 95 95 98 100 91 83 77 82 89 93 96 97 98 97 99 100 99 99 98 97 91 84 87 80 83 94 88
90 98 86 95 95 100 100 100 100 100 100 100 100 99 98 97 96 95 93 95 84 83 78 76 77 76 73 78 83 95 100 98 96 97 100 97 96 92 91 86 84 91 84

GFSGL_925_rhum_036.txt.gz
RH
90 93 95 93 88 85 82 67 56 38 35 51 39 47 40 39 40 43 42 44 49 49 53 59 58 59 63 76 84 85 88 91 98 80 71 55 54 58 55 37 45 52 56
85 81 80 84 85 80 76 64 40 35 42 45 42 44 40 41 43 44 44 44 45 47 50 60 59 64 69 75 77 74 72 69 69 64 56 59 62 59 45 49 49 61 60
77 72 71 70 62 59 55 42 36 38 44 38 44 44 41 43 45 49 47 46 46 47 53 61 61 68 67 69 72 69 68 64 56 61 64 69 67 56 48 54 67 67 64
64 64 62 55 54 50 46 42 39 40 41 42 46 42 46 50 62 50 49 49 47 50 57 61 64 67 66 67 64 59 56 54 55 61 70 71 66 58 55 80 77 74 77
67 63 61 56 53 51 48 44 43 46 48 51 54 62 78 78 64 59 52 52 50 54 60 63 64 66 64 60 53 52 52 54 61 70 70 73 73 66 78 80 86 88 92
67 67 64 59 59 56 51 50 54 53 55 66 77 84 88 82 58 53 55 55 56 59 62 62 62 58 56 53 55 56 56 61 66 67 71 77 67 66 77 88 95 96 80
72 69 65 64 62 61 58 63 75 81 85 92 89 90 92 79 57 51 53 58 63 64 64 63 60 54 53 56 59 61 65 65 65 69 79 65 65 72 87 94 97 98 94
72 70 67 64 65 75 85 91 97 97 97 95 90 97 77 62 59 58 58 61 64 66 68 65 58 55 57 61 64 68 68 66 67 75 62 56 71 81 94 89 90 92 96
82 84 82 83 90 96 99 96 85 85 93 94 97 74 66 62 55 55 63 62 64 67 68 64 59 59 61 64 67 69 69 69 71 66 58 74 88 89 81 87 77 95 90
90 93 95 91 85 87 92 91 93 97 94 78 69 67 64 59 58 60 57 71 73 73 64 66 62 63 65 66 67 68 74 68 75 62 62 68 74 75 75 76 70 98 98
81 80 87 91 94 96 90 81 82 78 72 70 69 65 62 64 64 65 63 62 76 78 77 64 71 73 70 68 66 68 67 65 74 71 74 79 78 76 75 75 71 78 98
98 94 86 82 80 78 75 72 72 74 74 69 69 66 64 67 68 67 70 70 68 81 83 77 74 74 99 94 69 69 67 77 82 80 90 93 81 75 76 76 71 70 73
63 61 62 62 64 65 67 69 70 70 73 73 73 76 73 66 66 69 72 65 71 82 79 77 84 91 100 98 91 84 76 81 87 96 96 87 72 74 79 80 73 70 69
70 73 76 80 79 78 78 75 74 70 72 76 80 82 75 71 69 71 66 60 66 66 67 81 90 100 100 99 98 97 96 89 84 83 82 83 76 76 79 81 80 76 82
81 84 83 81 79 77 75 77 79 78 83 88 91 90 94 92 87 79 78 67 68 72 79 98 100 100 98 100 99 97 97 97 90 89 81 85 83 81 78 78 81 82 93
79 79 79 77 76 81 88 91 81 84 91 91 92 96 94 97 93 88 97 99 98 98 99 100 100 100 100 100 98 97 97 97 95 90 84 82 87 80 78 71 82 84 92
56 69 68 63 80 94 98 96 95 84 81 79 78 76 82 89 86 86 99 99 99 99 99 100 99 97 100 98 98 97 97 93 89 89 88 78 86 79 78 68 80 88 84
50 65 69 79 91 95 97 100 100 100 98 95 92 91 92 91 90 92 94 100 99 98 94 96 96 93 96 100 98 97 96 97 85 86 87 80 89 77 80 73 80 92 87
63 87 76 88 96 93 96 99 98 99 98 97 94 94 85 78 86 93 84 100 99 100 92 89 90 96 99 100 100 97 97 96 92 86 84 78 87 78 85 82 84 90 88
65 84 79 93 90 100 91 100 100 99 98 98 98 100 99 98 94 98 100 98 98 98 98 97 93 99 100 100 98 98 97 96 97 91 86 77 82 83 91 88 89 88 86
74 85 71 75 82 84 89 100 100 100 100 100 100 100 100 100 99 98 98 98 98 97 98 97 98 99 98 98 98 97 96 96 97 93 80 78 80 89 94 93 92 82 87
75 75 72 90 79 83 93 98 89 100 100 100 100 97 100 100 100 100 99 97 96 95 96 95 96 96 99 97 99 98 96 96 96 95 80 80 82 89 96 96 92 83 86
79 78 71 81 78 83 92 83 85 99 100 88 92 100 100 100 100 100 100 100 99 96 96 95 95 93 91 95 97 98 98 96 96 97 86 83 86 94 97 95 90 84 84
78 79 75 80 86 86 84 79 82 94 96 89 92 98 98 99 100 100 100 100 100 99 94 96 95 95 90 92 93 96 96 96 98 97 98 94 89 92 96 97 92 84 78
80 83 77 82 94 91 87 80 78 86 88 91 94 96 95 96 100 100 100 100 100 99 92 94 96 96 92 95 95 97 96 96 96 97 97 97 97 97 97 96 93 88 82
81 83 79 77 94 96 92 85 81 82 86 89 92 94 94 96 99 96 100 100 99 94 95 93 96 96 95 97 99 100 96 96 96 96 96 97 97 96 96 96 95 89 80

GFSGL_925_rhum_039.txt.gz
RH
97 96 94 98 100 100 99 94 82 70 61 51 42 46 50 46 39 39 41 44 41 42 49 51 69 75 72 75 85 85 81 90 69 51 62 65 63 58 57 58 52 51 50
87 87 93 99 100 100 100 96 84 74 65 48 50 54 57 42 40 42 46 77 52 50 49 67 66 70 76 78 82 80 75 70 68 54 51 56 59 60 62 59 51 52 59
92 94 95 98 100 100 97 94 87 75 63 42 53 44 56 44 45 47 70 70 63 51 55 62 63 72 71 74 77 72 69 70 67 64 53 51 60 60 57 50 48 57 53
90 89 91 93 91 93 88 80 76 67 50 44 46 51 50 52 50 67 87 73 66 58 52 52 60 70 70 70 70 67 68 67 59 55 51 52 55 54 59 46 49 49 52
77 75 77 78 75 69 59 55 52 48 46 51 54 57 68 76 69 88 88 79 74 69 57 54 57 60 62 69 70 64 62 56 54 52 52 54 52 51 45 51 57 56 57
80 76 76 66 62 58 56 55 54 54 59 66 84 81 76 80 94 97 82 67 65 62 69 64 59 63 63 65 60 56 54 59 59 57 56 55 54 53 50 59 64 61 55
80 79 75 66 64 66 67 66 72 83 91 91 82 84 84 95 98 86 66 64 70 71 73 71 70 65 62 63 59 54 60 59 62 66 67 62 64 52 59 64 61 61 61
77 76 77 81 88 88 93 99 99 86 78 87 88 88 96 99 81 66 61 56 65 66 72 75 75 72 69 62 63 68 71 74 79 76 71 69 60 60 69 73 74 73 62
83 86 89 92 94 98 92 89 85 89 89 90 92 98 98 82 67 60 55 58 68 75 70 72 78 74 67 60 69 72 70 68 71 68 69 69 56 65 88 77 72 64 65
89 91 92 90 88 86 88 92 96 98 99 98 87 81 72 70 64 57 60 74 76 75 75 76 71 70 66 72 84 81 77 64 67 72 72 65 69 75 81 85 70 70 66
99 99 99 100 96 88 84 86 86 85 83 77 70 68 67 65 63 62 67 71 78 80 80 77 82 72 68 69 88 94 96 77 73 73 69 60 66 72 72 72 72 72 72
92 81 78 73 67 68 69 72 73 79 80 79 76 79 75 57 57 60 66 69 71 77 85 82 83 72 76 77 76 92 97 93 92 86 81 78 78 78 71 69 72 77 76
62 70 67 66 69 71 78 80 78 81 83 83 83 83 81 85 87 77 70 72 73 77 76 61 63 73 84 93 97 100 100 98 99 96 86 82 81 77 75 80 86 84 75
84 88 86 83 80 81 78 78 76 79 82 83 85 89 93 96 95 92 95 94 97 99 98 84 83 82 100 100 100 97 100 99 98 97 91 84 86 94 89 84 87 80 76
84 84 82 78 74 69 70 77 76 76 80 80 76 81 87 88 87 97 100 100 100 100 100 100 99 98 100 100 100 100 98 100 98 99 97 94 93 88 87 86 89 80 77
68 68 71 71 73 70 68 65 75 80 73 74 80 88 95 99 86 76 87 94 91 94 100 99 96 99 99 94 96 97 100 98 99 99 99 98 94 87 85 83 86 80 75
66 72 73 78 76 78 78 75 74 76 87 92 92 93 92 92 97 92 96 88 85 93 100 99 98 98 95 92 95 97 97 99 100 98 98 99 99 91 94 83 84 82 77
78 61 78 84 85 82 81 81 80 81 81 79 86 94 99 97 97 96 96 88 93 88 99 95 94 96 97 99 98 99 98 100 100 99 100 100 100 93 92 86 84 84 78
72 78 88 91 90 91 86 86 84 84 82 82 82 81 90 96 95 95 99 99 97 97 99 99 98 97 94 100 98 98 99 100 99 99 100 100 100 95 94 86 86 86 87
85 69 76 87 87 84 87 88 85 84 85 85 84 89 90 93 91 93 95 100 98 97 97 97 98 96 98 98 97 99 100 100 100 100 99 99 100 98 93 91 95 92 82
85 84 80 88 85 86 91 91 87 88 89 88 87 95 97 100 95 95 95 97 99 98 100 100 100 100 99 97 99 99 99 100 100 100 99 98 100 98 97 96 100 97 86
79 83 86 90 89 95 95 91 93 93 92 92 90 93 100 99 97 97 97 100 100 100 100 100 100 100 100 100 100 100 100 100 100 100 99 98 100 97 98 100 100 99 89
73 75 88 90 92 94 98 92 94 96 96 96 97 98 100 100 100 100 100 100 100 100 100 100 100 100 100 96 96 100 100 100 100 98 97 98 100 99 100 100 100 100 92
78 76 89 95 99 98 100 98 98 93 97 98 100 100 100 100 100 100 100 100 100 100 100 100 100 100 100 100 96 97 100 100 100 96 97 98 100 99 100 100 100 100 95
77 80 91 96 98 100 100 100 100 100 100 100 100 100 100 100 100 100 100 100 100 100 100 100 100 100 100 100 96 96 100 98 96 96 96 96 99 98 100 100 100 100 97
89 84 84 82 100 100 100 100 100 100 100 100 100 100 100 100 100 100 100 100 100 100 100 100 99 100 100 98 97 96 97 97 96 96 96 97 98 100 100 100 100 100 100

GFSGL_925_rhum_042.txt.gz
RH
80 83 96 99 98 100 99 99 95 91 82 73 69 67 75 50 49 50 53 54 66 78 63 54 52 52 53 51 50 51 49 47 53 44 38 36 46 54 49 45 48 44 37
70 77 88 97 100 100 100 100 100 96 88 80 69 74 55 60 64 57 59 62 84 78 55 52 53 51 53 54 51 50 48 47 45 42 40 40 41 43 46 49 47 40 36
76 81 88 96 100 99 99 98 99 97 90 77 68 69 62 69 58 58 64 69 89 80 63 55 52 53 53 52 49 50 47 44 45 46 44 43 41 39 41 43 42 37 38
79 79 82 87 91 94 99 100 98 91 80 72 70 71 69 60 64 80 71 84 95 92 74 63 59 57 54 52 48 48 49 48 46 46 42 41 36 36 40 40 34 32 35
75 72 80 80 79 77 77 78 79 78 78 75 75 62 68 85 68 80 96 96 100 79 68 64 65 65 60 56 49 47 48 47 46 44 42 38 36 36 36 38 35 38 39
69 68 71 70 70 70 73 75 70 66 67 63 86 74 68 73 82 85 89 98 98 72 61 58 58 64 70 66 61 58 56 52 48 49 45 40 39 38 40 39 38 41 40
68 69 70 70 73 77 80 77 69 83 75 72 73 74 83 73 87 92 95 98 70 61 58 54 52 49 60 69 70 67 66 56 52 58 50 46 46 45 45 39 40 43 45
66 67 70 74 79 83 84 86 90 82 80 87 85 77 88 93 95 97 90 75 63 54 52 53 56 54 54 60 66 63 65 63 71 69 60 52 51 52 48 46 52 54 50
68 70 72 74 76 78 81 86 85 83 89 90 94 92 95 96 89 75 67 65 58 56 55 54 55 55 57 65 71 68 63 64 71 64 65 61 60 61 58 56 61 55 56
70 71 73 73 73 76 84 98 95 96 95 91 80 71 70 72 72 73 68 68 64 63 63 59 60 64 65 72 74 74 68 67 73 71 67 72 72 75 66 75 63 58 54
80 86 93 92 84 78 71 64 62 59 63 67 71 68 67 67 68 71 70 78 74 74 70 64 61 65 67 70 77 79 80 81 79 95 94 66 58 52 55 62 60 56 56
84 73 62 57 53 52 53 54 54 54 59 61 66 66 67 69 72 81 87 87 90 95 90 83 76 79 77 75 80 88 84 84 98 98 98 90 65 57 56 53 51 53 57
54 54 59 61 60 61 58 60 55 59 60 61 59 60 57 64 68 71 72 79 84 89 86 91 91 95 99 95 87 84 92 98 100 99 96 93 94 81 67 59 59 62 64
59 60 59 61 57 54 47 44 42 49 55 52 53 54 56 62 62 96 86 79 78 85 83 86 91 97 99 99 99 98 98 100 100 97 94 95 97 98 78 70 66 63 66
58 56 52 48 41 38 39 48 54 58 71 70 66 68 74 80 92 97 93 88 90 91 96 92 82 88 91 98 99 98 98 96 100 99 98 98 98 98 86 78 74 68 68
43 43 54 51 50 42 41 41 57 62 63 82 83 91 90 94 97 96 94 94 93 92 97 79 79 82 86 85 99 98 90 94 94 97 99 99 98 89 90 85 76 70 66
43 48 52 54 50 51 52 51 49 56 67 77 84 87 94 94 94 93 91 92 85 78 91 92 96 96 90 88 99 98 91 94 97 98 98 98 98 98 98 89 78 77 67
55 55 54 57 55 58 57 60 59 62 64 61 68 77 83 87 91 88 88 81 72 74 76 81 87 89 92 96 93 95 88 94 99 98 99 98 98 96 97 88 74 73 67
50 54 65 69 73 70 68 67 65 65 65 65 63 63 72 85 85 82 83 80 81 78 80 83 87 90 92 95 97 98 96 99 98 98 98 97 98 98 97 84 74 73 75
68 69 70 66 66 65 66 68 64 66 66 67 68 73 79 81 80 78 79 82 83 81 82 83 88 92 95 96 96 96 98 98 98 96 97 96 97 98 97 85 82 88 78
59 67 75 67 66 67 71 72 70 71 72 71 72 81 98 92 82 80 80 82 86 87 88 89 89 92 95 96 96 97 98 96 98 98 98 98 97 98 98 93 86 83 74
66 66 69 71 72 80 78 74 78 79 76 76 78 79 87 84 82 82 82 87 92 92 91 92 94 93 95 97 98 99 97 96 97 99 99 99 99 98 98 91 90 96 78
76 80 73 73 79 85 84 82 84 85 82 83 84 83 84 85 88 87 89 92 93 95 96 97 98 98 98 98 100 100 99 97 97 99 100 98 98 98 98 92 88 90 84
84 87 77 82 90 86 90 90 89 86 88 86 88 88 87 90 92 92 93 95 97 98 99 100 100 100 100 100 100 100 100 100 100 100 100 100 99 98 98 98 90 88 85
92 91 89 88 92 92 93 90 90 91 91 91 92 92 92 93 91 93 96 98 99 98 100 100 100 100 100 100 100 100 100 98 99 100 100 100 99 97 98 98 95 91 90
90 89 88 91 90 93 93 93 92 93 93 94 96 97 98 98 96 99 100 99 97 100 100 100 100 100 100 100 100 100 100 98 96 96 100 100 98 98 98 98 99 96 94

GFSGL_925_rhum_045.txt.gz
RH
74 80 76 78 86 92 95 97 91 89 90 80 79 72 66 76 86 73 51 50 64 70 74 87 78 58 51 49 48 47 45 43 43 39 36 36 36 37 39 46 48 45 44
76 74 77 80 83 93 97 99 95 95 88 80 78 72 79 82 75 59 60 64 72 87 76 93 76 61 55 52 52 50 47 44 44 44 40 37 37 37 39 42 44 42 41
54 69 81 95 98 100 100 99 98 97 93 84 78 78 80 73 63 63 68 74 80 73 86 94 80 68 59 59 56 53 45 42 44 43 41 39 38 37 37 36 38 38 39
61 63 72 88 96 99 99 99 100 100 96 89 80 76 72 62 71 77 80 79 73 88 95 93 83 70 64 59 54 51 45 45 46 44 42 42 37 35 34 34 36 35 33
65 67 79 80 81 88 90 91 94 91 82 77 75 73 71 75 70 67 76 73 87 98 97 94 73 66 61 59 60 58 48 44 43 42 43 40 37 35 34 33 35 36 34
66 69 71 69 68 70 70 75 77 78 77 78 79 73 76 80 76 80 76 94 94 100 99 82 61 51 51 55 58 60 64 64 52 48 46 43 40 38 37 38 40 39 36
62 63 65 66 68 68 67 69 71 78 78 93 88 85 84 77 74 80 84 95 97 96 81 60 52 45 43 44 46 54 60 63 64 64 62 54 49 46 43 46 44 41 36
60 63 66 68 70 68 71 73 79 82 82 83 80 75 80 88 92 91 92 97 84 66 58 52 48 47 47 48 52 55 62 68 74 70 66 60 58 56 48 49 49 44 47
60 63 65 66 67 68 72 77 79 78 80 90 89 91 85 83 79 84 81 71 65 61 55 52 52 53 53 52 56 65 63 60 59 64 67 69 72 60 56 57 56 49 60
59 62 64 65 66 72 81 86 89 88 83 76 69 63 59 60 61 68 74 75 72 69 65 62 60 60 60 58 60 67 71 69 65 64 76 85 74 79 76 62 63 58 59
64 70 76 78 81 77 67 57 52 49 51 58 63 61 58 59 61 72 81 87 90 95 88 84 80 76 78 86 98 94 81 74 75 80 88 98 99 77 73 76 74 66 66
75 74 62 48 41 44 45 45 44 46 54 58 63 62 61 63 67 67 68 72 77 81 81 83 81 83 80 75 79 86 92 98 90 92 99 99 99 94 85 70 69 70 63
52 45 45 44 44 45 45 48 42 44 47 49 48 51 48 53 55 74 78 71 69 75 74 77 69 66 77 83 84 87 90 100 100 98 98 95 87 86 86 90 92 76 56
48 48 47 44 44 39 35 32 35 46 50 47 47 51 52 61 62 83 78 75 72 74 76 82 82 89 78 77 75 85 98 100 100 98 99 90 86 98 98 97 98 84 68
45 45 44 39 32 32 35 41 48 71 58 62 66 64 74 76 82 94 91 82 83 83 90 87 86 83 79 75 70 68 74 99 100 99 98 94 98 99 99 98 98 88 76
41 41 47 46 40 32 32 53 54 51 52 50 60 68 84 91 88 91 90 88 87 90 79 70 80 87 89 86 92 98 93 99 97 97 94 90 90 99 98 99 98 97 82
41 47 51 47 42 42 42 43 41 78 63 67 70 71 83 85 89 89 87 84 81 69 62 61 78 89 89 85 85 86 100 98 94 98 94 88 95 95 99 99 98 96 82
48 44 45 48 48 48 48 51 50 55 60 59 66 65 68 80 84 86 80 79 65 63 62 61 65 80 90 90 92 94 93 98 95 90 97 94 94 97 99 98 96 96 82
45 50 59 65 66 61 62 60 59 58 59 60 58 57 64 78 80 80 78 74 74 69 66 66 68 72 82 93 96 96 98 98 98 98 98 95 95 96 98 97 98 96 82
62 58 59 60 61 59 60 62 57 60 61 60 62 66 74 79 78 73 73 75 77 74 75 76 77 85 92 92 95 96 95 96 97 98 98 98 98 98 98 98 98 97 81
61 67 67 63 60 60 63 66 63 65 68 66 65 75 86 83 82 72 72 73 76 80 84 85 89 93 93 93 88 94 94 96 96 97 97 98 98 94 95 98 98 98 92
64 63 64 66 64 75 75 68 71 73 72 69 71 73 78 79 76 75 73 78 85 86 88 87 89 92 91 91 93 92 94 96 95 95 97 95 96 98 94 98 98 98 84
74 75 68 64 76 80 78 76 76 79 77 78 77 77 78 79 81 80 81 85 88 91 93 93 92 92 91 92 94 95 95 95 95 96 96 95 96 96 98 98 98 98 91
80 84 74 71 79 84 81 84 82 80 80 79 82 82 80 81 83 84 86 91 92 92 92 94 95 95 94 96 94 94 96 95 92 96 97 96 95 94 96 98 97 97 93
86 85 82 82 83 83 84 81 82 83 84 84 84 84 82 84 82 84 90 93 93 91 94 95 95 97 97 98 99 100 99 100 100 99 100 99 99 97 96 97 97 97 95
83 81 82 84 83 84 84 85 85 86 85 86 87 86 86 86 86 88 90 92 92 95 98 98 98 100 100 98 99 100 97 99 100 100 100 99 97 95 97 97 97 97 96